Weather History for KNDZ - September, 2013

Change the Weather History Date:

Thursday, September 12, 2013

  Actual Average (KNSE) Record (KNSE)
Temperature  
Mean Temperature 82 °F -  
Max Temperature 93 °F 85 °F 97 °F (2010)
Min Temperature 73 °F 67 °F 62 °F (2003)
Cooling Degree Days 17    
Growing Degree Days 32 (Base 50)    
Moisture  
Dew Point 69 °F    
Average Humidity 70    
Maximum Humidity 87    
Minimum Humidity 41    
Precipitation  
Precipitation 0.00 in - - ()
Sea Level Pressure  
Sea Level Pressure 29.95 in    
Wind  
Wind Speed 5 mph (ENE)    
Max Wind Speed 9 mph    
Max Gust Speed -    
Visibility 10 miles    
Events      
Averages and records for this station are not official NWS values.
T = Trace of Precipitation, MM = Missing Value Source: NWS Daily Summary

Daily Weather History Graph

Daily Weather History Graph

Search for Another Location

Airport or City:

Trip Planner

Search our weather history database for the weather conditions in past years. The results will help you decide how hot, cold, wet, or windy it might be!

Date:

Astronomy

Sep. 12, 2013 Rise Set
Actual Time 6:30 AM CDT 6:57 PM CDT
Civil Twilight 6:06 AM CDT 7:21 PM CDT
Nautical Twilight 5:38 AM CDT 7:49 PM CDT
Astronomical Twilight 5:09 AM CDT 8:18 PM CDT
Moon 1:31 PM CDT (9/12) No Moon Set
Length of Visible Light 13h 14m
Length of Day
12h 26m
Waxing Crescent, 50% of the Moon is Illuminated
Sep 12
Waxing Crescent
Sep 12
First Quarter
Sep 19
Full
Sep 26
Last Quarter
Oct 4
New

Hourly Weather History & Observations

Time (CDT) Temp. Heat Index Dew Point Humidity Pressure Visibility Wind Dir Wind Speed Gust Speed Precip Events Conditions
12:56 AM 75.0 °F - 68.0 °F 79% 30.00 in 10.0 mi ENE 3.5 mph - N/A   Clear
1:56 AM 75.9 °F - 69.1 °F 79% 30.00 in 10.0 mi NE 5.8 mph - N/A   Scattered Clouds
2:56 AM 75.9 °F - 69.1 °F 79% 29.99 in 10.0 mi NNE 4.6 mph - N/A   Clear
3:56 AM 75.0 °F - 69.1 °F 82% 29.99 in 10.0 mi NE 5.8 mph - N/A   Scattered Clouds
4:56 AM 73.0 °F - 69.1 °F 87% 29.99 in 10.0 mi ENE 6.9 mph - N/A   Scattered Clouds
5:56 AM 73.9 °F - 69.1 °F 85% 30.00 in 10.0 mi East 5.8 mph - N/A   Partly Cloudy
6:56 AM 73.9 °F - 69.1 °F 85% 30.00 in 10.0 mi NE 4.6 mph - N/A   Scattered Clouds
7:56 AM 77.0 °F - 70.0 °F 79% 30.01 in 10.0 mi ENE 6.9 mph - N/A   Partly Cloudy
8:56 AM 81.0 °F 84.9 °F 71.1 °F 72% 30.01 in 10.0 mi East 4.6 mph - N/A   Clear
9:56 AM 84.0 °F 88.4 °F 70.0 °F 63% 30.02 in 10.0 mi ENE 6.9 mph - N/A   Clear
10:56 AM 87.1 °F 92.0 °F 70.0 °F 57% 30.01 in 10.0 mi ENE 3.5 mph - N/A   Partly Cloudy
11:56 AM 89.1 °F 92.9 °F 68.0 °F 50% 29.99 in 10.0 mi ENE 6.9 mph - N/A   Scattered Clouds
12:56 PM 91.9 °F 95.4 °F 66.9 °F 44% 29.97 in 10.0 mi East 9.2 mph - N/A   Scattered Clouds
1:56 PM 91.9 °F 95.9 °F 68.0 °F 45% 29.94 in 10.0 mi North 6.9 mph - N/A   Scattered Clouds
2:56 PM 91.0 °F 92.6 °F 64.0 °F 41% 29.91 in 10.0 mi NE 6.9 mph - N/A   Partly Cloudy
3:56 PM 89.1 °F 90.3 °F 64.0 °F 43% 29.89 in 10.0 mi North 3.5 mph - N/A   Scattered Clouds
4:56 PM 88.0 °F 93.8 °F 71.1 °F 57% 29.88 in 10.0 mi Variable 3.5 mph - N/A   Scattered Clouds
5:56 PM 84.9 °F 90.7 °F 72.0 °F 65% 29.88 in 10.0 mi South 6.9 mph - N/A   Scattered Clouds
6:56 PM 82.0 °F 86.7 °F 72.0 °F 71% 29.89 in 10.0 mi Calm Calm - N/A   Scattered Clouds
7:56 PM 80.1 °F 83.6 °F 71.1 °F 74% 29.89 in 10.0 mi Calm Calm - N/A   Partly Cloudy
8:56 PM 78.1 °F - 71.1 °F 79% 29.91 in 10.0 mi Calm Calm - N/A   Scattered Clouds
9:56 PM 75.9 °F - 71.1 °F 85% 29.91 in 10.0 mi Calm Calm - N/A   Partly Cloudy
10:56 PM 75.0 °F - 70.0 °F 84% 29.91 in 10.0 mi Calm Calm - N/A   Partly Cloudy
11:56 PM 75.0 °F - 70.0 °F 84% 29.91 in 10.0 mi Calm Calm - N/A   Clear